Regional Weather Roundup
Issued by NWS Sioux Falls, SD

Home | Current Version | Previous Version | Graphics & Text | Print | Product List | Glossary On
Versions: 1 2 3 4 5 6 7 8 9 10 11 12 13 14 15 16 17 18 19 20 21 22 23 24 25 26 27 28 29 30 31 32 33 34 35 36 37 38 39 40 41 42 43 44 45 46 47 48 49 50
000
ASUS43 KFSD 042010
RWRFSD

WEATHER ROUNDUP FOR SE SOUTH DAKOTA/SW MINNESOTA/NW IOWA
NATIONAL WEATHER SERVICE SIOUX FALLS SD
300 PM CDT WED MAY 04 2016

NOTE: "FAIR" INDICATES FEW OR NO CLOUDS BELOW 12,000 FEET WITH NO
SIGNIFICANT WEATHER AND OR OBSTRUCTIONS TO VISIBILITY.


SDZ038>040-050-052>070-042100-
SOUTHEAST SOUTH DAKOTA

CITY           SKY/WX    TMP DP  RH WIND       PRES   REMARKS
BROOKINGS      SUNNY     66  33  29 NW16      30.02F
CHAMBERLAIN    SUNNY     70  38  30 N8        30.09F
HURON          SUNNY     68  32  26 N14       30.06F
MADISON        FAIR      66  32  28 NW18      30.05F
MITCHELL       SUNNY     67  35  30 NW10      30.07F
SIOUX FALLS    MOSUNNY   66  38  35 NW8G18    30.03F
WINNER         FAIR      71  35  26 N5        30.10F
YANKTON        SUNNY     64  37  36 NW8G17    30.06F
$$

MNZ071-072-080-081-089-090-097-098-042100-
SOUTHWEST MINNESOTA

CITY           SKY/WX    TMP DP  RH WIND       PRES   REMARKS
FAIRMONT       SUNNY     64  34  32 N16G24    29.97F
JACKSON        SUNNY     64  30  27 NW14G25   30.00F
LUVERNE        SUNNY     64  30  27 N10G20    30.03F
MARSHALL       SUNNY     67  33  28 N17       30.00F
MONTEVIDEO     SUNNY     70  30  23 N18G26    30.01F
PIPESTONE      SUNNY     66  25  20 N13G20    30.02F
REDWOOD FALLS  SUNNY     67  29  24 NW14G21   29.98F
TRACY          SUNNY     67  33  28 N16G23    30.01F
WINDOM         SUNNY     64  32  29 NW13G31   30.00S
WORTHINGTON    SUNNY     63  36  36 NW20G28   30.02F
$$

IAZ001>003-012>014-020>022-031-032-NEZ013-014-SDZ071-042100-
NORTHWEST IOWA

CITY           SKY/WX    TMP DP  RH WIND       PRES   REMARKS
CHEROKEE       SUNNY     64  40  40 N12G23    30.02F
DENISON        SUNNY     64  36  34 N15G23    30.00F
ESTHERVILLE    SUNNY     63  35  35 N16G29    29.99F
LE MARS        SUNNY     66  37  34 N15G22    30.05S
ORANGE CITY    SUNNY     64  37  36 N9G22     30.04S
SHELDON        SUNNY     66  34  30 NW16G25   30.01F
SIOUX CITY     SUNNY     67  43  41 NW17G25   30.04F
SPENCER        SUNNY     65  35  33 N21G26    30.01F
STORM LAKE       N/A     63  36  36 NW18G24   30.02F
$$

ABBREVIATIONS USED IN REMARKS
   TC - TEMPERATURE IN CELSIUS
  WCI - WIND CHILL INDEX
   HX - HEAT INDEX
  VSB - VISIBILITY




USA.gov is the U.S. government's official web portal to all federal, state and local government web resources and services.